QPF
0.00 0.01 0.01 0.01 0.01 0.01 0.01 0.01 0.01 0.02 0.01 0.01 0.00 0.00 0.00 0.00 0.00 0.00 0.00 0.00 0.00 0.00 0.00 0.00 0.00 0.00 0.00 0.00 0.00 0.00 0.00 0.00 0.00 0.00 0.00 0.00 0.00 0.01 0.01 0.01 0.01 0.02 0.02
0.00 0.00 0.00 0.00 0.01 0.01 0.01 0.00 0.00 0.00 0.00 0.00 0.00 0.00 0.00 0.00 0.00 0.00 0.00 0.00 0.00 0.00 0.00 0.00 0.00 0.00 0.00 0.00 0.00 0.00 0.00 0.00 0.00 0.00 0.00 0.00 0.00 0.00 0.00 0.01 0.02 0.03 0.02
0.00 0.00 0.00 0.00 0.00 0.00 0.00 0.01 0.01 0.00 0.00 0.01 0.00 0.00 0.00 0.00 0.00 0.00 0.00 0.00 0.00 0.00 0.00 0.00 0.00 0.00 0.00 0.00 0.00 0.00 0.00 0.00 0.00 0.00 0.00 0.00 0.00 0.00 0.00 0.01 0.02 0.01 0.01
0.00 0.00 0.00 0.00 0.00 0.00 0.00 0.00 0.00 0.00 0.00 0.00 0.00 0.00 0.00 0.00 0.00 0.00 0.00 0.00 0.00 0.00 0.00 0.00 0.00 0.00 0.00 0.00 0.00 0.00 0.00 0.00 0.00 0.00 0.00 0.00 0.00 0.00 0.01 0.01 0.02 0.01 0.01
0.00 0.00 0.00 0.00 0.00 0.00 0.00 0.00 0.00 0.00 0.01 0.01 0.01 0.00 0.00 0.00 0.00 0.00 0.00 0.00 0.00 0.00 0.00 0.00 0.00 0.00 0.00 0.00 0.00 0.00 0.00 0.00 0.00 0.00 0.00 0.00 0.00 0.00 0.00 0.01 0.01 0.01 0.01
0.00 0.00 0.00 0.01 0.00 0.00 0.00 0.00 0.00 0.00 0.00 0.00 0.00 0.00 0.00 0.00 0.00 0.00 0.00 0.00 0.00 0.00 0.00 0.00 0.00 0.00 0.00 0.00 0.00 0.00 0.00 0.00 0.00 0.00 0.00 0.00 0.00 0.00 0.00 0.00 0.00 0.00 0.01
0.01 0.00 0.00 0.00 0.00 0.00 0.00 0.00 0.00 0.00 0.00 0.00 0.00 0.00 0.00 0.00 0.00 0.00 0.00 0.00 0.00 0.00 0.00 0.00 0.00 0.00 0.00 0.00 0.00 0.00 0.00 0.00 0.00 0.00 0.00 0.00 0.00 0.00 0.00 0.00 0.00 0.00 0.00
0.02 0.00 0.00 0.00 0.00 0.00 0.00 0.00 0.00 0.00 0.00 0.00 0.00 0.00 0.00 0.00 0.00 0.00 0.00 0.00 0.00 0.00 0.00 0.00 0.00 0.00 0.00 0.00 0.00 0.00 0.00 0.00 0.00 0.00 0.00 0.00 0.00 0.00 0.00 0.00 0.00 0.00 0.01
0.02 0.01 0.00 0.00 0.00 0.00 0.00 0.00 0.00 0.01 0.01 0.00 0.00 0.00 0.00 0.00 0.00 0.00 0.00 0.00 0.00 0.00 0.00 0.00 0.00 0.00 0.00 0.00 0.00 0.00 0.00 0.00 0.00 0.00 0.00 0.00 0.00 0.00 0.00 0.00 0.00 0.00 0.00
0.01 0.01 0.00 0.00 0.00 0.00 0.00 0.00 0.01 0.01 0.01 0.01 0.00 0.00 0.00 0.00 0.01 0.00 0.00 0.00 0.00 0.00 0.00 0.00 0.00 0.00 0.00 0.00 0.00 0.00 0.00 0.00 0.00 0.00 0.00 0.00 0.00 0.00 0.00 0.00 0.00 0.00 0.00
0.00 0.01 0.01 0.00 0.00 0.00 0.00 0.01 0.01 0.01 0.01 0.01 0.00 0.00 0.01 0.00 0.01 0.01 0.00 0.00 0.00 0.00 0.00 0.01 0.01 0.01 0.00 0.00 0.00 0.00 0.00 0.00 0.00 0.00 0.00 0.00 0.00 0.00 0.00 0.00 0.00 0.00 0.00
0.00 0.01 0.01 0.00 0.00 0.00 0.00 0.00 0.01 0.01 0.01 0.01 0.00 0.00 0.00 0.00 0.00 0.00 0.00 0.00 0.00 0.00 0.01 0.01 0.01 0.01 0.01 0.01 0.01 0.01 0.00 0.00 0.00 0.00 0.00 0.00 0.00 0.00 0.00 0.00 0.00 0.00 0.00
0.01 0.00 0.01 0.01 0.00 0.00 0.00 0.00 0.01 0.01 0.01 0.01 0.00 0.00 0.00 0.00 0.00 0.00 0.00 0.00 0.00 0.01 0.01 0.02 0.02 0.02 0.02 0.01 0.01 0.01 0.01 0.00 0.00 0.00 0.00 0.00 0.00 0.00 0.00 0.00 0.00 0.00 0.00
0.01 0.01 0.01 0.01 0.00 0.00 0.01 0.00 0.01 0.01 0.00 0.00 0.00 0.00 0.00 0.00 0.01 0.01 0.00 0.00 0.00 0.00 0.00 0.01 0.02 0.03 0.03 0.03 0.02 0.01 0.01 0.01 0.00 0.00 0.00 0.00 0.00 0.00 0.00 0.00 0.00 0.00 0.00
0.01 0.01 0.01 0.02 0.01 0.00 0.00 0.00 0.00 0.00 0.00 0.00 0.00 0.00 0.00 0.00 0.00 0.00 0.00 0.00 0.00 0.00 0.01 0.01 0.02 0.03 0.04 0.04 0.03 0.01 0.01 0.01 0.01 0.01 0.00 0.00 0.00 0.00 0.00 0.00 0.00 0.00 0.00
0.01 0.01 0.01 0.01 0.01 0.00 0.00 0.00 0.00 0.00 0.00 0.00 0.00 0.00 0.00 0.00 0.00 0.00 0.00 0.01 0.01 0.01 0.01 0.01 0.02 0.02 0.03 0.03 0.04 0.03 0.02 0.01 0.01 0.01 0.00 0.00 0.00 0.00 0.00 0.01 0.01 0.00 0.00
0.02 0.02 0.01 0.01 0.01 0.00 0.00 0.00 0.00 0.00 0.01 0.00 0.00 0.00 0.00 0.00 0.00 0.01 0.01 0.01 0.02 0.02 0.02 0.02 0.02 0.02 0.02 0.02 0.03 0.03 0.02 0.02 0.01 0.01 0.01 0.00 0.00 0.00 0.00 0.01 0.00 0.00 0.00
0.02 0.03 0.03 0.02 0.01 0.01 0.01 0.01 0.00 0.00 0.00 0.00 0.01 0.00 0.01 0.01 0.01 0.01 0.02 0.02 0.03 0.03 0.02 0.02 0.01 0.01 0.01 0.02 0.02 0.02 0.02 0.02 0.01 0.01 0.01 0.01 0.00 0.00 0.00 0.00 0.00 0.00 0.00
0.03 0.03 0.03 0.03 0.02 0.02 0.01 0.00 0.00 0.00 0.00 0.00 0.01 0.01 0.01 0.01 0.02 0.02 0.02 0.02 0.02 0.02 0.02 0.02 0.01 0.01 0.02 0.02 0.01 0.01 0.01 0.02 0.01 0.01 0.01 0.01 0.01 0.00 0.00 0.00 0.00 0.00 0.00
0.03 0.03 0.02 0.02 0.03 0.03 0.01 0.00 0.00 0.00 0.00 0.00 0.00 0.01 0.02 0.02 0.02 0.02 0.02 0.02 0.01 0.01 0.01 0.01 0.01 0.01 0.01 0.02 0.02 0.02 0.01 0.01 0.01 0.01 0.01 0.01 0.00 0.00 0.00 0.00 0.00 0.00 0.00
0.03 0.02 0.02 0.02 0.02 0.03 0.02 0.01 0.00 0.00 0.00 0.00 0.01 0.01 0.02 0.02 0.02 0.02 0.02 0.02 0.02 0.01 0.01 0.01 0.01 0.01 0.01 0.01 0.01 0.02 0.01 0.01 0.01 0.01 0.01 0.01 0.01 0.00 0.00 0.00 0.00 0.00 0.00
0.03 0.02 0.01 0.02 0.02 0.02 0.01 0.01 0.01 0.00 0.01 0.00 0.01 0.01 0.01 0.02 0.01 0.01 0.02 0.02 0.02 0.01 0.01 0.01 0.01 0.01 0.01 0.00 0.00 0.01 0.01 0.01 0.01 0.01 0.00 0.00 0.01 0.01 0.01 0.00 0.00 0.00 0.00
0.02 0.02 0.01 0.01 0.01 0.01 0.02 0.02 0.01 0.00 0.00 0.00 0.00 0.00 0.01 0.01 0.01 0.01 0.01 0.01 0.02 0.01 0.01 0.01 0.01 0.01 0.00 0.00 0.01 0.01 0.01 0.01 0.00 0.01 0.01 0.01 0.01 0.01 0.01 0.00 0.00 0.00 0.00
0.02 0.02 0.02 0.02 0.01 0.02 0.02 0.03 0.02 0.01 0.00 0.00 0.00 0.00 0.00 0.01 0.01 0.01 0.01 0.01 0.01 0.01 0.01 0.01 0.01 0.01 0.01 0.00 0.00 0.00 0.01 0.01 0.01 0.01 0.01 0.00 0.00 0.00 0.00 0.00 0.00 0.00 0.00
0.03 0.03 0.03 0.03 0.03 0.03 0.04 0.05 0.04 0.03 0.01 0.01 0.00 0.00 0.00 0.00 0.00 0.00 0.00 0.00 0.00 0.00 0.00 0.00 0.00 0.00 0.00 0.01 0.01 0.00 0.00 0.00 0.01 0.01 0.01 0.01 0.01 0.00 0.01 0.01 0.01 0.01 0.01
0.01 0.02 0.02 0.02 0.01 0.02 0.02 0.02 0.03 0.03 0.02 0.02 0.01 0.01 0.01 0.01 0.01 0.01 0.01 0.00 0.00 0.00 0.00 0.00 0.00 0.00 0.00 0.00 0.00 0.00 0.00 0.01 0.01 0.01 0.01 0.01 0.01 0.01 0.01 0.01 0.01 0.01 0.01
MSLP
1020.45 1020.69 1020.86 1020.94 1020.91 1020.80 1020.65 1020.51 1020.46 1020.50 1020.65 1020.88 1021.14 1021.37 1021.53 1021.56 1021.45 1021.23 1020.92 1020.59 1020.29 1020.06 1019.92 1019.90 1019.98 1020.12 1020.30 1020.49 1020.68 1020.84 1020.99 1021.12 1021.24 1021.34 1021.42 1021.45 1021.43 1021.33 1021.15 1020.92 1020.66 1020.39 1020.16
1020.71 1021.00 1021.21 1021.30 1021.26 1021.12 1020.92 1020.74 1020.64 1020.65 1020.78 1021.02 1021.30 1021.57 1021.76 1021.82 1021.75 1021.55 1021.27 1020.96 1020.66 1020.43 1020.30 1020.27 1020.32 1020.43 1020.58 1020.73 1020.86 1020.99 1021.10 1021.21 1021.32 1021.42 1021.51 1021.56 1021.55 1021.48 1021.32 1021.10 1020.84 1020.57 1020.34
1020.88 1021.21 1021.45 1021.57 1021.53 1021.38 1021.16 1020.94 1020.80 1020.78 1020.89 1021.11 1021.39 1021.67 1021.88 1021.99 1021.96 1021.81 1021.58 1021.31 1021.06 1020.87 1020.75 1020.72 1020.75 1020.83 1020.92 1021.01 1021.09 1021.16 1021.23 1021.31 1021.40 1021.51 1021.61 1021.69 1021.71 1021.66 1021.53 1021.32 1021.07 1020.80 1020.56
1020.93 1021.29 1021.57 1021.72 1021.71 1021.56 1021.34 1021.11 1020.94 1020.89 1020.97 1021.16 1021.42 1021.69 1021.92 1022.05 1022.06 1021.98 1021.82 1021.62 1021.44 1021.30 1021.22 1021.21 1021.23 1021.28 1021.33 1021.36 1021.37 1021.39 1021.41 1021.46 1021.54 1021.64 1021.76 1021.86 1021.91 1021.89 1021.79 1021.60 1021.35 1021.08 1020.81
1020.89 1021.27 1021.59 1021.77 1021.79 1021.68 1021.47 1021.25 1021.07 1021.00 1021.04 1021.19 1021.41 1021.66 1021.87 1022.02 1022.08 1022.05 1021.97 1021.86 1021.76 1021.69 1021.67 1021.68 1021.70 1021.73 1021.74 1021.72 1021.69 1021.66 1021.64 1021.66 1021.73 1021.83 1021.96 1022.07 1022.15 1022.15 1022.07 1021.89 1021.65 1021.37 1021.07
1020.80 1021.19 1021.52 1021.74 1021.81 1021.74 1021.57 1021.37 1021.20 1021.11 1021.12 1021.22 1021.39 1021.59 1021.78 1021.92 1022.01 1022.03 1022.02 1022.00 1021.98 1021.98 1022.01 1022.05 1022.09 1022.11 1022.10 1022.06 1021.99 1021.93 1021.89 1021.89 1021.95 1022.05 1022.17 1022.29 1022.38 1022.39 1022.32 1022.16 1021.92 1021.63 1021.31
1020.72 1021.10 1021.44 1021.69 1021.80 1021.79 1021.67 1021.51 1021.36 1021.25 1021.23 1021.28 1021.39 1021.54 1021.68 1021.81 1021.90 1021.95 1021.99 1022.03 1022.07 1022.14 1022.21 1022.29 1022.35 1022.37 1022.36 1022.31 1022.23 1022.16 1022.11 1022.10 1022.15 1022.24 1022.36 1022.48 1022.56 1022.58 1022.52 1022.36 1022.13 1021.84 1021.51
1020.72 1021.07 1021.41 1021.68 1021.84 1021.88 1021.82 1021.70 1021.57 1021.46 1021.41 1021.41 1021.46 1021.54 1021.63 1021.72 1021.79 1021.85 1021.91 1021.99 1022.07 1022.17 1022.28 1022.38 1022.46 1022.49 1022.49 1022.44 1022.38 1022.31 1022.27 1022.27 1022.31 1022.40 1022.50 1022.60 1022.67 1022.68 1022.62 1022.48 1022.26 1021.98 1021.66
1020.86 1021.18 1021.50 1021.78 1021.97 1022.06 1022.05 1021.97 1021.87 1021.77 1021.69 1021.65 1021.63 1021.65 1021.68 1021.72 1021.76 1021.80 1021.86 1021.94 1022.04 1022.15 1022.27 1022.37 1022.46 1022.50 1022.51 1022.49 1022.45 1022.41 1022.38 1022.39 1022.43 1022.50 1022.58 1022.66 1022.70 1022.70 1022.63 1022.50 1022.31 1022.06 1021.77
1021.20 1021.48 1021.78 1022.05 1022.26 1022.38 1022.41 1022.38 1022.30 1022.20 1022.11 1022.03 1021.97 1021.92 1021.89 1021.88 1021.87 1021.88 1021.92 1021.97 1022.06 1022.15 1022.26 1022.35 1022.43 1022.48 1022.50 1022.50 1022.49 1022.48 1022.48 1022.50 1022.54 1022.59 1022.65 1022.68 1022.69 1022.66 1022.58 1022.46 1022.30 1022.09 1021.84
1021.77 1022.00 1022.27 1022.53 1022.74 1022.88 1022.94 1022.94 1022.88 1022.80 1022.69 1022.59 1022.49 1022.40 1022.32 1022.25 1022.21 1022.18 1022.17 1022.19 1022.24 1022.30 1022.37 1022.43 1022.49 1022.54 1022.57 1022.59 1022.60 1022.62 1022.64 1022.67 1022.70 1022.72 1022.74 1022.72 1022.69 1022.62 1022.52 1022.40 1022.26 1022.09 1021.88
1022.56 1022.75 1022.99 1023.22 1023.42 1023.56 1023.64 1023.66 1023.62 1023.55 1023.45 1023.33 1023.21 1023.09 1022.98 1022.88 1022.79 1022.72 1022.68 1022.66 1022.66 1022.67 1022.69 1022.72 1022.75 1022.77 1022.80 1022.82 1022.85 1022.88 1022.91 1022.94 1022.95 1022.94 1022.90 1022.83 1022.73 1022.61 1022.48 1022.34 1022.20 1022.06 1021.90
1023.52 1023.69 1023.89 1024.09 1024.27 1024.40 1024.49 1024.52 1024.50 1024.44 1024.35 1024.24 1024.11 1023.98 1023.85 1023.73 1023.63 1023.53 1023.46 1023.40 1023.35 1023.31 1023.29 1023.27 1023.25 1023.25 1023.25 1023.26 1023.29 1023.32 1023.34 1023.35 1023.33 1023.27 1023.17 1023.03 1022.85 1022.67 1022.48 1022.30 1022.15 1022.01 1021.88
1024.59 1024.74 1024.90 1025.07 1025.23 1025.35 1025.43 1025.47 1025.47 1025.43 1025.36 1025.26 1025.15 1025.03 1024.91 1024.79 1024.67 1024.57 1024.47 1024.39 1024.30 1024.23 1024.15 1024.08 1024.02 1023.97 1023.94 1023.92 1023.92 1023.93 1023.93 1023.90 1023.83 1023.71 1023.54 1023.32 1023.06 1022.79 1022.54 1022.31 1022.11 1021.95 1021.81
1025.69 1025.82 1025.96 1026.10 1026.23 1026.34 1026.42 1026.47 1026.49 1026.47 1026.43 1026.36 1026.27 1026.17 1026.07 1025.96 1025.86 1025.76 1025.66 1025.56 1025.45 1025.34 1025.22 1025.10 1024.99 1024.89 1024.81 1024.75 1024.71 1024.67 1024.62 1024.54 1024.42 1024.24 1023.99 1023.69 1023.35 1022.99 1022.65 1022.35 1022.10 1021.89 1021.72
1026.73 1026.86 1026.98 1027.10 1027.21 1027.31 1027.39 1027.45 1027.49 1027.51 1027.49 1027.45 1027.40 1027.33 1027.25 1027.17 1027.09 1027.00 1026.91 1026.81 1026.69 1026.55 1026.40 1026.24 1026.08 1025.93 1025.79 1025.67 1025.57 1025.47 1025.37 1025.23 1025.05 1024.80 1024.48 1024.11 1023.69 1023.26 1022.84 1022.46 1022.13 1021.87 1021.64
1027.64 1027.78 1027.90 1028.00 1028.11 1028.21 1028.30 1028.38 1028.45 1028.49 1028.51 1028.50 1028.48 1028.44 1028.39 1028.33 1028.27 1028.20 1028.12 1028.03 1027.91 1027.76 1027.59 1027.39 1027.18 1026.98 1026.78 1026.59 1026.43 1026.26 1026.10 1025.90 1025.66 1025.36 1024.99 1024.56 1024.08 1023.59 1023.10 1022.65 1022.25 1021.91 1021.63
1028.38 1028.54 1028.67 1028.79 1028.90 1029.01 1029.12 1029.22 1029.31 1029.39 1029.44 1029.46 1029.46 1029.44 1029.42 1029.38 1029.34 1029.29 1029.22 1029.13 1029.02 1028.86 1028.67 1028.45 1028.20 1027.95 1027.69 1027.44 1027.21 1026.98 1026.76 1026.51 1026.23 1025.89 1025.49 1025.03 1024.52 1023.99 1023.46 1022.95 1022.50 1022.09 1021.75
1028.96 1029.15 1029.31 1029.44 1029.58 1029.71 1029.85 1029.98 1030.10 1030.20 1030.28 1030.32 1030.34 1030.33 1030.31 1030.28 1030.25 1030.21 1030.15 1030.07 1029.96 1029.80 1029.60 1029.36 1029.08 1028.78 1028.47 1028.17 1027.88 1027.60 1027.33 1027.04 1026.73 1026.37 1025.97 1025.51 1025.00 1024.46 1023.92 1023.38 1022.88 1022.43 1022.03
1029.40 1029.64 1029.84 1030.01 1030.18 1030.34 1030.51 1030.67 1030.82 1030.94 1031.03 1031.08 1031.11 1031.10 1031.08 1031.05 1031.01 1030.97 1030.91 1030.83 1030.72 1030.56 1030.35 1030.09 1029.79 1029.46 1029.12 1028.77 1028.43 1028.11 1027.80 1027.49 1027.17 1026.82 1026.43 1025.99 1025.51 1025.00 1024.46 1023.92 1023.40 1022.91 1022.47
1029.75 1030.05 1030.30 1030.52 1030.73 1030.93 1031.13 1031.32 1031.49 1031.62 1031.72 1031.77 1031.79 1031.77 1031.74 1031.69 1031.64 1031.59 1031.52 1031.44 1031.32 1031.16 1030.94 1030.67 1030.36 1030.00 1029.63 1029.25 1028.88 1028.52 1028.19 1027.87 1027.55 1027.22 1026.86 1026.46 1026.02 1025.54 1025.03 1024.51 1023.99 1023.48 1023.00
1030.06 1030.43 1030.74 1031.01 1031.26 1031.50 1031.73 1031.94 1032.11 1032.25 1032.35 1032.39 1032.40 1032.37 1032.31 1032.25 1032.18 1032.11 1032.03 1031.93 1031.80 1031.63 1031.41 1031.13 1030.79 1030.42 1030.03 1029.62 1029.23 1028.86 1028.51 1028.18 1027.87 1027.56 1027.23 1026.87 1026.47 1026.04 1025.57 1025.07 1024.56 1024.04 1023.54
1030.37 1030.81 1031.17 1031.50 1031.79 1032.05 1032.30 1032.52 1032.70 1032.84 1032.93 1032.96 1032.95 1032.91 1032.84 1032.75 1032.66 1032.57 1032.47 1032.35 1032.20 1032.02 1031.78 1031.48 1031.14 1030.75 1030.33 1029.91 1029.50 1029.11 1028.74 1028.41 1028.10 1027.80 1027.49 1027.17 1026.81 1026.41 1025.97 1025.49 1024.99 1024.48 1023.96
1030.71 1031.20 1031.62 1031.98 1032.30 1032.58 1032.84 1033.06 1033.24 1033.36 1033.44 1033.47 1033.45 1033.40 1033.32 1033.22 1033.11 1033.00 1032.88 1032.73 1032.56 1032.35 1032.09 1031.77 1031.40 1030.99 1030.56 1030.11 1029.68 1029.27 1028.89 1028.54 1028.22 1027.92 1027.62 1027.30 1026.96 1026.58 1026.16 1025.70 1025.21 1024.69 1024.16
1031.06 1031.60 1032.05 1032.44 1032.77 1033.06 1033.32 1033.52 1033.69 1033.81 1033.88 1033.91 1033.89 1033.84 1033.76 1033.66 1033.54 1033.41 1033.26 1033.09 1032.88 1032.63 1032.33 1031.98 1031.58 1031.15 1030.69 1030.22 1029.77 1029.33 1028.93 1028.56 1028.22 1027.89 1027.57 1027.25 1026.90 1026.52 1026.10 1025.64 1025.14 1024.62 1024.08
1031.42 1031.98 1032.45 1032.85 1033.18 1033.46 1033.70 1033.89 1034.04 1034.16 1034.23 1034.26 1034.25 1034.21 1034.14 1034.05 1033.93 1033.79 1033.61 1033.40 1033.15 1032.86 1032.51 1032.12 1031.68 1031.21 1030.72 1030.23 1029.75 1029.28 1028.85 1028.45 1028.07 1027.71 1027.36 1027.00 1026.62 1026.22 1025.78 1025.30 1024.80 1024.27 1023.72
Thickness
5728 5730 5731 5731 5730 5729 5729 5728 5726 5725 5724 5722 5720 5719 5718 5718 5718 5718 5718 5718 5718 5718 5717 5715 5713 5712 5710 5708 5706 5704 5701 5698 5697 5696 5692 5691 5692 5691 5690 5690 5690 5690 5690
5724 5726 5728 5728 5727 5727 5727 5726 5725 5724 5723 5722 5720 5718 5716 5715 5715 5715 5715 5715 5715 5715 5714 5713 5711 5709 5708 5705 5704 5702 5698 5695 5694 5692 5688 5684 5684 5686 5686 5686 5686 5686 5686
5722 5723 5725 5725 5726 5726 5726 5726 5724 5723 5722 5720 5718 5716 5714 5713 5712 5712 5712 5712 5712 5712 5711 5710 5708 5706 5705 5703 5701 5700 5697 5693 5691 5690 5687 5681 5677 5677 5680 5681 5681 5681 5682
5725 5725 5725 5725 5726 5727 5727 5725 5724 5722 5720 5719 5717 5714 5711 5708 5709 5709 5709 5709 5709 5709 5708 5707 5706 5704 5702 5701 5699 5697 5696 5693 5689 5687 5685 5683 5680 5675 5673 5676 5677 5678 5678
5726 5726 5727 5728 5728 5727 5726 5724 5722 5720 5719 5717 5715 5713 5710 5709 5707 5707 5707 5706 5706 5706 5705 5704 5703 5701 5700 5698 5697 5695 5693 5691 5688 5685 5683 5680 5677 5675 5672 5669 5670 5673 5674
5726 5727 5728 5728 5726 5725 5724 5722 5720 5718 5717 5715 5714 5712 5710 5707 5705 5704 5703 5703 5703 5703 5703 5702 5700 5699 5697 5695 5694 5692 5691 5688 5686 5684 5681 5679 5676 5673 5670 5666 5665 5665 5668
5725 5724 5724 5724 5723 5723 5722 5721 5719 5717 5716 5714 5712 5711 5709 5707 5706 5704 5702 5701 5700 5700 5700 5699 5698 5697 5695 5693 5691 5689 5687 5685 5683 5681 5679 5677 5675 5673 5670 5666 5663 5662 5663
5725 5725 5725 5724 5723 5722 5721 5719 5718 5716 5714 5713 5712 5710 5709 5707 5705 5704 5702 5700 5699 5699 5698 5697 5696 5694 5692 5690 5688 5686 5684 5682 5680 5679 5676 5674 5673 5671 5669 5666 5662 5659 5658
5725 5725 5724 5724 5723 5722 5721 5720 5718 5716 5714 5712 5711 5709 5708 5707 5705 5704 5702 5700 5698 5697 5696 5695 5693 5691 5689 5687 5685 5683 5680 5679 5677 5675 5673 5671 5670 5668 5667 5665 5662 5658 5654
5724 5724 5723 5723 5722 5722 5722 5720 5718 5715 5714 5712 5710 5709 5707 5706 5704 5702 5700 5698 5697 5696 5694 5692 5690 5687 5686 5684 5682 5679 5677 5675 5673 5671 5670 5668 5666 5665 5663 5661 5659 5657 5654
5723 5723 5722 5722 5721 5720 5719 5717 5715 5713 5711 5710 5708 5707 5705 5704 5702 5700 5698 5697 5695 5693 5691 5689 5687 5684 5682 5680 5678 5675 5673 5671 5669 5667 5666 5664 5663 5661 5659 5657 5655 5653 5650
5722 5722 5720 5719 5717 5716 5715 5714 5713 5711 5709 5708 5706 5704 5702 5701 5699 5697 5696 5694 5692 5691 5689 5687 5684 5681 5679 5676 5674 5671 5669 5666 5664 5663 5661 5659 5659 5657 5655 5653 5651 5649 5647
5720 5719 5717 5715 5714 5713 5713 5712 5710 5709 5708 5706 5703 5701 5699 5697 5696 5694 5693 5691 5689 5687 5685 5683 5680 5678 5675 5673 5670 5668 5665 5663 5661 5659 5657 5655 5654 5652 5650 5648 5646 5644 5643
5717 5716 5714 5713 5712 5712 5711 5710 5709 5708 5706 5703 5700 5698 5697 5695 5693 5692 5690 5688 5686 5684 5681 5679 5677 5675 5672 5669 5667 5664 5661 5659 5657 5655 5653 5651 5649 5648 5646 5644 5641 5639 5637
5715 5714 5712 5711 5710 5709 5709 5708 5707 5705 5704 5701 5698 5696 5695 5692 5690 5688 5686 5684 5682 5680 5677 5675 5673 5671 5668 5666 5663 5661 5658 5654 5652 5650 5649 5647 5646 5644 5642 5640 5637 5634 5631
5714 5713 5712 5710 5709 5708 5707 5706 5704 5703 5702 5699 5696 5694 5691 5689 5686 5684 5682 5680 5677 5675 5672 5670 5668 5666 5665 5663 5661 5657 5654 5651 5648 5645 5644 5643 5641 5640 5638 5636 5634 5631 5627
5712 5711 5710 5710 5709 5708 5707 5705 5703 5701 5699 5696 5693 5691 5688 5685 5683 5681 5678 5675 5672 5670 5667 5665 5663 5661 5660 5659 5656 5653 5649 5646 5643 5641 5639 5638 5636 5634 5632 5630 5628 5625 5623
5710 5710 5709 5708 5707 5707 5705 5703 5701 5698 5695 5692 5690 5688 5685 5682 5679 5676 5674 5671 5668 5665 5663 5660 5659 5657 5656 5654 5652 5648 5644 5641 5638 5636 5633 5631 5629 5628 5626 5623 5620 5617 5615
5709 5709 5708 5707 5705 5703 5702 5699 5696 5693 5691 5688 5686 5684 5682 5678 5675 5672 5670 5667 5664 5661 5658 5656 5653 5651 5650 5649 5647 5643 5638 5634 5632 5630 5628 5626 5624 5623 5621 5617 5612 5610 5608
5706 5705 5704 5703 5701 5699 5698 5695 5691 5689 5687 5685 5684 5682 5679 5675 5671 5669 5666 5663 5660 5657 5654 5651 5649 5647 5645 5644 5642 5638 5633 5628 5626 5624 5622 5620 5618 5616 5614 5609 5605 5601 5600
5701 5700 5699 5697 5695 5694 5693 5689 5687 5685 5685 5683 5680 5677 5675 5672 5668 5665 5661 5658 5655 5651 5648 5645 5643 5641 5639 5638 5636 5633 5628 5624 5621 5618 5615 5613 5612 5610 5607 5603 5599 5596 5593
5696 5694 5692 5690 5689 5688 5687 5684 5682 5682 5681 5678 5675 5672 5670 5667 5664 5659 5655 5652 5648 5645 5641 5638 5636 5634 5632 5631 5629 5627 5623 5620 5615 5612 5609 5607 5605 5602 5599 5596 5593 5589 5585
5689 5687 5685 5683 5682 5681 5681 5678 5677 5676 5675 5672 5669 5666 5663 5660 5657 5654 5649 5644 5641 5638 5634 5631 5629 5626 5625 5624 5622 5620 5616 5613 5608 5605 5603 5600 5597 5594 5590 5587 5584 5580 5574
5682 5681 5679 5676 5675 5674 5674 5673 5672 5671 5668 5665 5662 5659 5656 5653 5649 5647 5643 5639 5635 5631 5628 5625 5622 5620 5617 5615 5614 5611 5607 5604 5600 5596 5593 5590 5587 5583 5579 5576 5572 5568 5563
5675 5674 5672 5670 5668 5667 5666 5666 5665 5664 5661 5657 5655 5652 5649 5645 5641 5638 5635 5633 5630 5627 5624 5620 5617 5613 5610 5610 5608 5603 5599 5596 5592 5587 5583 5578 5574 5570 5566 5563 5559 5555 5551
5667 5666 5664 5662 5661 5660 5659 5659 5658 5657 5654 5650 5646 5643 5639 5636 5633 5629 5626 5624 5622 5620 5617 5615 5611 5608 5605 5602 5599 5595 5591 5587 5583 5577 5571 5567 5562 5559 5555 5551 5547 5543 5538